Location: ?????????
(53.2086°N, 54.0693°E)
Time: 15:18:54
(UTC+00:00)

Lacrosse 5 rocket - Pass Details

Date: 08 December 2019
Orbit: 465 x 632 km, 57.0° (Epoch: 29 January)

Event Time Altitude Azimuth Distance (km) Brightness Sun altitude
Rises 13:58:25 0° 215° (SW) 2,802 5.8 -15.6°
Reaches altitude 10° 14:00:50 10° 207° (SSW) 1,877 4.7 -15.9°
Maximum altitude 14:04:46 37° 140° (SE) 870 2.1 -16.5°
Enters shadow 14:05:56 30° 103° (ESE) 995 2.1 -16.6°
